Tracking 29892 objects as of 21-Nov-2024
HD Live streaming from Space Station
objects crossing your sky now

SL-19 DEB

Track SL-19 DEB now!
10-day predictions


NORAD ID: 36038
Int'l Code: 2009-059C
Perigee: 697.7 km
Apogee: 711.3 km
Inclination: 98.2 °
Period: 98.7 minutes
Semi major axis: 7075 km
RCS: 0.8568 m2 (medium)
Launch date: November 2, 2009
Source: Commonwealth of Independent States (former USSR) (CIS)
Launch site: PLESETSK MISSILE AND SPACE COMPLEX (PKMTR)

Note: This is SATELLITE DEBRIS
Your satellite tracking list
Your tracking list is empty




NASA's NSSDC Master Catalog

Two Line Element Set (TLE):
1 36038U 09059C   24325.84231552  .00001691  00000-0  37208-3 0  9999
2 36038  98.1689 146.6541 0009604 187.7209 234.8541 14.58701313799424
Source of the keplerian elements: AFSPC